Location: Altleiningen
(49.5078°N, 8.0741°E)
Time: 23:55:57
(UTC+00:00)

SAR-Lupe-4 - Pass Details

Date: 03 March 2021
Orbit: 481 x 485 km, 98.2° (Epoch: 26 March)

Event Time Altitude Azimuth Distance (km) Brightness Sun altitude
Rises 18:04:36 0° 19° (NNE) 2,556 7.0 -9.0°
Reaches altitude 10° 18:06:44 10° 26° (NNE) 1,671 6.0 -9.4°
Maximum altitude 18:10:11 44° 100° (E) 682 3.8 -9.9°
Drops below altitude 10° 18:13:36 10° 174° (S) 1,658 6.2 -10.5°
Sets 18:15:43 0° 181° (S) 2,533 7.2 -10.8°
